TimeCST,TemperatureF,Dew PointF,Humidity,Sea Level PressureIn,VisibilityMPH,Wind Direction,Wind SpeedMPH,Gust SpeedMPH,PrecipitationIn,Events,Conditions,WindDirDegrees,DateUTC
12:52 AM,15.1,10.0,80,30.15,-9999.0,North,9.2,-,0.02,,Unknown,10,2014-01-05 06:52:00
1:52 AM,15.1,5.0,64,30.16,-9999.0,North,12.7,20.7,0.01,,Unknown,10,2014-01-05 07:52:00
2:52 AM,12.9,5.0,71,30.15,-9999.0,North,13.8,27.6,N/A,,Unknown,10,2014-01-05 08:52:00
3:52 AM,12.0,5.0,73,30.19,-9999.0,North,11.5,19.6,N/A,,Unknown,350,2014-01-05 09:52:00
4:52 AM,10.9,5.0,77,30.17,-9999.0,North,11.5,20.7,0.05,,Unknown,360,2014-01-05 10:52:00
5:52 AM,10.0,3.9,76,30.21,-9999.0,NNW,10.4,17.3,0.02,,Unknown,340,2014-01-05 11:52:00
6:52 AM,10.9,-0.0,61,30.21,-9999.0,North,15.0,24.2,0.01,,Unknown,350,2014-01-05 12:52:00
7:52 AM,10.0,-2.0,58,30.25,-9999.0,NNW,12.7,24.2,N/A,,Unknown,340,2014-01-05 13:52:00
8:52 AM,9.0,-2.9,59,30.27,-9999.0,NNW,12.7,27.6,N/A,,Unknown,340,2014-01-05 14:52:00
9:52 AM,10.0,-5.1,51,30.30,-9999.0,North,11.5,25.3,N/A,,Unknown,350,2014-01-05 15:52:00
10:52 AM,10.0,-6.0,48,30.31,-9999.0,NNW,10.4,20.7,N/A,,Unknown,340,2014-01-05 16:52:00
11:52 AM,9.0,-7.1,48,30.32,-9999.0,North,13.8,23.0,N/A,,Unknown,350,2014-01-05 17:52:00
12:52 PM,10.0,-8.0,44,30.32,-9999.0,NNW,13.8,25.3,N/A,,Unknown,340,2014-01-05 18:52:00
1:52 PM,10.9,-9.0,40,30.34,-9999.0,NNW,16.1,28.8,N/A,,Unknown,340,2014-01-05 19:52:00
2:52 PM,10.0,-9.0,42,30.38,-9999.0,NNW,12.7,24.2,N/A,,Unknown,340,2014-01-05 20:52:00
3:52 PM,9.0,-9.0,44,30.43,-9999.0,NNW,15.0,27.6,N/A,,Unknown,340,2014-01-05 21:52:00
4:52 PM,8.1,-8.0,48,30.46,-9999.0,NNW,10.4,21.9,N/A,,Unknown,330,2014-01-05 22:52:00
5:52 PM,7.0,-7.1,53,30.49,-9999.0,NW,8.1,-,N/A,,Unknown,320,2014-01-05 23:52:00
6:52 PM,7.0,-11.0,44,30.52,-9999.0,NNW,18.4,29.9,N/A,,Unknown,340,2014-01-06 00:52:00
7:52 PM,3.9,-15.0,41,30.54,-9999.0,NNW,11.5,21.9,N/A,,Unknown,330,2014-01-06 01:52:00
8:52 PM,1.9,-16.1,43,30.56,-9999.0,NNW,10.4,21.9,N/A,,Unknown,330,2014-01-06 02:52:00
9:52 PM,-0.0,-17.0,45,30.57,-9999.0,NNW,10.4,-,N/A,,Unknown,330,2014-01-06 03:52:00
10:52 PM,-0.9,-17.0,47,30.58,-9999.0,NNW,9.2,20.7,N/A,,Unknown,330,2014-01-06 04:52:00
11:52 PM,-4.0,-20.9,44,30.61,-9999.0,NNW,10.4,18.4,N/A,,Unknown,330,2014-01-06 05:52:00